www.pogodaiklimat.ru

Погода и климат >> Архив погоды >> Россия >> Приморский край >> Партизанск


ПОГОДА в Партизанске

  • Прогноз погоды в Партизанске
  • Монитор погоды в Партизанске
  • Климат города

АРХИВ ПОГОДЫ в Партизанске

Время (UTC), дата Ветер
(напр.,м/с)
 
Видим.   Явления Облачность Т
(С)
Тd
(С)
f
(%)
Тe
(С)
Тes
(С)
Комфортность P
(гПа)
Po
(гПа)
Тmin
(С)
Tmax
(С)
R
(мм)
R24
(мм)
S
(см)
06 19.04 СЗ 4 50 км {снег, туман} 10/10 300 м
[St]
+5.3 +0.3 70 +2 +2 1003.6 978.5
09 19.04 С 3 50 км 10/8 600 м
[Cb calv As op]
+5.7 +1.0 72 +3 +3 1006.7 981.5 +6.3 3
12 19.04 СВ 1 50 км в посл. час ливневой дождь 10/10 300 м
[Cb calv]
+4.8 +2.0 82 +4 +4 1010.2 984.9
15 19.04 ЮВ 1 50 км 10/6 300 м
[Cb calv Ac As]
+4.8 +1.7 80 +4 +4 1012.0 986.7
18 19.04 ЮЗ 1 50 км 10/10 600 м
[St]
+3.2 +1.5 89 +2 +2 1012.8 987.3
21 19.04 Ю 2 2000 м дымка 10/10 300 м
[St]
+2.1 +0.7 90 -1 -1 1013.7 988.1 +2.1 0.0
00 20.04 Ю 2 20 км 10/10 300 м
[St]
+2.7 +1.2 90 -1 -1 1013.9 988.3 +2.0
03 20.04 ЮВ 1 50 км 10/8 600 м
[Cb calv Ac trans Cs]
+7.8 +2.1 67 +7 +9 1011.9 986.8
06 20.04 Ю 4 50 км 10/8 600 м
[Cb calv Ci ing]
+8.8 +1.8 61 +6 +7 1010.1 985.1
09 20.04 Ю 4 50 км 10/8 600 м
[Cb cap Ac As]
+6.5 +1.9 72 +3 +3 1010.3 985.2 +9.4
12 20.04 Ю 1 50 км {ливн. осадки} 10/10 600 м
[Cb cap]
+4.9 +2.6 85 +4 +4 1011.0 985.7
15 20.04 Ю 2 10 км слабый ливневой дождь 10/10 600 м
[Cb cap]
+4.4 +2.5 87 +2 +2 1010.6 985.2
18 20.04 С 1 50 км в посл. час ливневой дождь 10/10 600 м
[Cb cap]
+3.6 +1.9 89 +2 +2 1009.7 984.3
21 20.04 С 2 50 км {ливн. осадки} 10/9 600 м
[Cb cap Ac trans]
+3.7 +1.9 88 +1 +1 1009.4 984.1 +3.5 4
00 21.04 С 6
{11}
50 км {ливн. осадки} 9/9 600 м
[Cb cap]
+5.9 -0.1 65 +1 +2 1009.2 984.0
03 21.04 С 7-10
{10}
50 км 6/6 600 м
[Cu Sc]
+8.9 -2.2 46 +5 +7 1008.5 983.6
06 21.04 С 4
{11}
50 км 6/6 600 м
[Cu med, cong]
+10.9 -4.1 35 +9 +12 1007.4 982.7
09 21.04 С 2 50 км 10/6 600 м
[Cu Sc Ac trans Ci fib]
+8.9 -3.9 40 +8 +8 1008.4 983.5 +11.2
12 21.04 СЗ 3 50 км 8/3 600 м
[Sc Ac trans Ci fib]
+7.0 -4.6 43 +5 +5 1010.4 985.3
15 21.04 С 3 50 км ясно +3.9 -6.1 48 +1 +1 1011.3 985.9
18 21.04 С 1 50 км ясно +0.7 -5.4 64 -1 -1 1011.9 986.1
21 21.04 С 2 50 км ясно -0.1 -5.4 67 -3 -3 1012.3 986.5 -0.5
00 22.04 ЮВ 1 50 км 1/1 1000 м
[Cu hum]
+7.2 -3.6 46 +7 +17 опасность
простуды
1012.2 987.0
03 22.04 СВ 2 50 км 6/6 1000 м
[Cu med, cong]
+12.4 -7.0 25 +12 +19 1010.9 986.2
06 22.04 Ю 7-11
{11}
50 км 8/8 1000 м
[Sc diur, vesp]
+11.9 -3.9 33 +9 +10 1010.3 985.6
09 22.04 Ю 6
{12}
50 км 4/4 1000 м
[Sc diur, vesp]
+6.6 -1.6 56 +3 +3 1012.3 987.1 +12.9
12 22.04 Ю 2 50 км 3/3 1000 м
[Sc]
+2.2 -1.6 76 -1 -1 1015.5 989.8
15 22.04 штиль 0 50 км ясно +1.0 -1.8 82 0 0 1016.5 990.7
18 22.04 штиль 0 50 км ясно -0.5 -2.8 84 -2 -2 1016.6 990.7
21 22.04 СЗ 1 50 км 8/3 1000 м
[Sc Ac trans Cc]
-0.2 -2.8 83 -2 -2 1017.1 991.1 -1.2
00 23.04 Ю 6 50 км 3/0
[Ac trans Cs]
+7.3 -4.3 43 +4 +7 1016.6 991.3
03 23.04 Ю 6
{12}
50 км 10/8 1000 м
[Sc Ac As Cs]
+10.0 -1.0 46 +7 +8 1015.9 990.9
06 23.04 Ю 8-12
{13}
20 км 10/6 1000 м
[Cb calv As op]
+8.7 +0.5 56 +5 +5 1015.8 990.7
09 23.04 Ю 5
{12}
50 км 10/10 1000 м
[Sc]
+6.2 +2.1 75 +2 +2 1015.8 990.5 +11.0
12 23.04 Ю 5 50 км 10/8 1000 м
[Sc As op]
+6.4 +3.4 81 +2 +2 1017.0 991.7
15 23.04 Ю 5 50 км 10/0
[As op]
+6.5 +3.7 82 +2 +2 1016.9 991.6
18 23.04 Ю 4 10 км слабый дождь 10/10 600 м
[Frnb Ns]
+6.4 +4.8 89 +3 +3 1017.1 991.8
21 23.04 В 1 50 км {дождь} 10/9 1000 м
[Sc Cs]
+6.6 +4.7 88 +6 +6 1018.4 993.0 +5.8 2
00 24.04 С 1 50 км {дождь} 4/3 600 м
[Cu hum Ci fib]
+10.6 +4.2 65 +11 +18 1018.8 993.8
03 24.04 Ю 5 50 км 10/0
[Ac As]
+14.0 +2.8 47 +12 +15 1017.9 993.2
06 24.04 ЮЗ 2
{11}
50 км слабый дождь 10/0
[As op]
+11.9 +1.1 48 +11 +13 1017.1 992.2
09 24.04 Ю 6 50 км {дождь} 10/1 1000 м
[Sc Ac lent Ci fib]
+10.5 +4.5 66 +7 +8 1015.7 990.8 +14.7 0.0
12 24.04 Ю 5
{10}
50 км {дождь} 10/5 1000 м
[Sc As op]
+8.6 +5.6 81 +5 +5 1015.9 990.8
15 24.04 Ю 3 50 км 9/9 600 м
[Sc]
+8.4 +5.5 82 +6 +6 1015.0 989.9
18 24.04 ЮЗ 2 50 км 10/10 600 м
[St]
+7.7 +5.0 83 +6 +6 1013.2 988.1
21 24.04 Ю 3 10 км дождь {морось} 10/10 300 м
[Frnb Ns]
+7.1 +5.5 90 +4 +4 1013.1 988.0 +7.2 2
00 25.04 Ю 1 50 км {дождь, морось} 10/9 300 м
[St Ci fib]
+9.5 +5.3 75 +9 +10 1013.7 988.8 +7.1
03 25.04 ЮЗ 4 50 км 8/8 600 м
[Cu hum]
+13.6 +2.8 48 +12 +15 1013.3 988.7
06 25.04 Ю 6-10
{13}
50 км 5/5 1000 м
[Cu hum]
+14.0 -4.3 28 +12 +14 1011.9 987.3
09 25.04 ЮЗ 1
{14}
50 км 9/3 1000 м
[Cu Sc Ac trans Ci fib]
+11.1 -1.5 41 +11 +12 1014.3 989.4 +15.2 0.1
12 25.04 Ю 2
{13}
50 км 10/3 1000 м
[Sc Ac trans Ci fib]
+8.6 -3.7 42 +7 +7 1015.4 990.3
15 25.04 С 2 50 км ясно +6.7 -2.5 52 +5 +5 1015.4 990.1
18 25.04 Ю 1 50 км ясно +3.6 -2.2 66 +3 +3 1015.0 989.4
21 25.04 С 1 50 км ясно +1.5 -2.2 76 -0 +1 1014.6 988.9 +1.2
00 26.04 Ю 3 50 км ясно +8.9 -1.0 50 +7 +15 1012.2 987.2
03 26.04 З 2 50 км 5/5 1000 м
[Cu med, cong]
+12.6 -5.8 27 +12 +21 1009.5 984.9

 

Местоположение метеостанции Партизанск (Приморский край, Россия): широта 43.15 долгота 133.00 высота над уровнем моря 208 м.

В архиве по умолчанию представлена погода в Партизанске за последнюю неделю. Архивные данные за месяц целиком и за предыдущие месяцы, начиная с января 2011 года, Вы можете получить, выбрав интересующий диапазон дат из раскрывающегося списка и нажав кнопку "Ввод!".

Внимание! Время в таблицах - всемирное. Для получения местного времени необходимо прибавить поправку, которая в Партизанске равна 10 ч.

Смотрите также архив погоды в соседних городах и на ближайших метеорологических станциях:

Погода в Находке (Приморский край, Россия) (42 км)
Погода в Лазо (Приморский край, Россия) (71 км)
Погода в Преображении (Приморский край, Россия) (78 км)
Погода в Владивостоке (Приморский край, Россия) (89 км)
Погода в Анучино (Приморский край, Россия) (91 км)
Погода в Тимирязевском (Приморский край, Россия) (120 км)
Погода в Чугуевке (Приморский край, Россия) (129 км)
Погода в Барабаше (Приморский край, Россия) (130 км)
Погода в Гамове (Приморский край, Россия) (160 км)
Погода в Хороль (Приморский край, Россия) (163 км)

Пояснения к столбцам:

Ветер - указаны скорость ветра в м/с - средняя за 10 мин, порывы в срок и между сроками (в фигурных скобках) и направление, откуда дует ветер: С - северный, СВ - северо-восточный, В - восточный, ЮВ - юго-восточный, Ю - южный, ЮЗ - юго-западный, З - западный, СЗ - северо-западный.
Видимость - горизонтальная дальность видимости в метрах или километрах. При видимости от 1 до 10 км при отсутствии осадков обычно наблюдается дымка, при ухудшении видимости до 1 км и менее - туман. В сухую погоду видимость может ухудшаться дымом, пылью или мглою.
Явления - указаны атмосферные явления, наблюдавшиеся в срок или в последний час перед сроком; фигурными скобками обозначены явления, наблюдавшиеся между сроками (за 1-3 часа до срока); квадратными скобками обозначены град или гололедные отложения с указанием их диаметра в мм.
Облачность - указаны через наклонную черту общая и нижняя облачность в баллах и высота нижней границы облаков в метрах; квадратными скобками обозначены формы облаков: Ci - перистые, Cs - перисто-слоистые, Cc - перисто-кучевые, Ac - высококучевые, As - высокослоистые, Sc - слоисто-кучевые, Ns - слоисто-дождевые, Cu - кучевые, Cb - кучево-дождевые. Подробнее классификацию облаков см. в Атласе облаков (PDF).
T - Температура воздуха - температура, измеренная на высоте 2 м над землей.
Td - Температура точки росы - температура, при понижении до которой содержащийся в воздухе водяной пар достигнет насыщения.
f - Относительная влажность воздуха - влажноcть воздуха, измеренная на высоте 2 м над землей.
Te - Эффективная температура - температура, которую ощущает одетый по сезону человек в тени. Характеристика душности погоды. При расчете учитывается влияние влажности воздуха и скорости ветра на теплоощущения человека.
Tes - Эффективная температура на солнце - температура, которую ощущает человек, с поправкой на солнечный нагрев. Характеристика знойности погоды. Зависит от высоты солнца над горизонтом, облачности и скорости ветра. Ночью, в пасмурную погоду, а также при ветре 12 м/с и более поправка равна нулю.
P - Атмосферное давление - приведенное к уровню моря атмосферное давление.
Po - Атмосферное давление - измеренное на уровне метеостанции атмосферное давление.
Tmin - Минимальная температура - минимум температуры воздуха на высоте 2 м над землей.
Tmax - Максимальная температура - максимум температуры воздуха на высоте 2 м над землей.
R - Количество осадков - Количество выпавших осадков за период времени, мм. При наведении курсора мыши на число - период времени, за который выпало указанное количество осадков.
R24 - Количество осадков - Количество выпавших осадков за 24 часа, мм.
S - Снежный покров - Высота снежного покрова, см. При наведении курсора мыши на число - состояние снежного покрова и степень покрытия местности в баллах.